星链-32857 (STARLINK-32857)

导读

STARLINK-32857是美国于2025年2月11日发射的SpaceX星链系列卫星,隶属于星链星座组网计划,承担全球范围低延迟宽带互联网服务部署任务,作为低轨通信卫星,它补充完善星链星座覆盖密度,进一步提升星链系统在全球通信、应急联网等场景的服务能力。

基本信息
目录编号:
62949
目录名称:
STARLINK-32857
国际标识:
2025-029B
轨道中心:
EARTH
卫星名称:
星链-32857
卫星全名:
星链-32857 (STARLINK-32857)
卫星状态:
在轨 (已飞行488 天)
发射日期:
2025-02-11 UTC
国别 :
美国 (US)
星等 :
--
轨道信息
数据来源 国际轨道数据
星历时间: 2026-06-13T23:18:24+0800
16小时前
查看轨道信息
半长轴: 6840.73km
偏心率: 0.0001467
轨道倾角: 53.158°
近地点辐角 105.251°
升交点赤经 143.540°
平近点角 254.865°
近地点: 461.589km
远地点: 463.597km
周期: 93.845分钟
每日圈数: 15.344373
详细信息
固有亮度:
5
最大亮度:
2.5
卫星平台:
Starlink V1.0
覆盖范围:
全球
运营商:
太空探索技术公司
运营商所在国:
美国
制造商(研发单位):
太空探索技术公司
制造商所在国:
美国
使用方式:
暂无
卫星简介
Starlink 计划是 SpaceX 推出的全球卫星互联网项目,通过发射低轨道卫星,为全球尤其是偏远地区提供高速、低延迟的互联网服务。自 2019 年起,Starlink 已部署数千颗卫星,旨在缩小全球数字鸿沟,推动互联网普及。该项目还为军事、航空等行业提供通信支持,带来广泛经济效益。
2D轨道图
3D轨道图
轨道高度分析图
轨道倾角分析图
轨道综合分析图
查看轨道综合分析图